Regional Weather Roundup
Issued by NWS

Home | Current Version | Previous Version | Text Only | Print | Product List | Glossary Off
Versions: 1 2 3 4 5 6 7 8 9 10 11 12 13 14 15 16 17 18 19 20 21 22 23 24 25 26 27 28 29 30 31 32 33 34 35 36 37 38 39 40 41 42 43 44 45 46 47 48 49 50

000
ASUS45 KBOU 180107
RWRCO

WEATHER ROUNDUP FOR COLORADO
NATIONAL WEATHER SERVICE DENVER/BOULDER CO
600 PM MST WED DEC 17 2014

NOTE: "FAIR" INDICATES FEW OR NO CLOUDS BELOW 12000 FEET WITH NO
SIGNIFICANT WEATHER AND/OR OBSTRUCTIONS TO VISIBILITY.

COZ001>005-013-030-031-180200-
...NORTHWEST COLORADO...

CITY           SKY/WX    TMP DP  RH WIND       PRES   REMARKS
CRAIG          CLOUDY    29  27  92 W5        30.00R WCI  24
HAYDEN         MOCLDY    25  23  93 SW5       29.98R WCI  19
MEEKER         CLOUDY    26  23  88 CALM      29.98R FOG
MOUNT WERNER   NOT AVBL
STEAMBOAT SPGS CLOUDY    28  27  96 CALM      29.97S
WALDEN         CLOUDY    21  18  86 N7        29.95S WCI  13
$$

COZ006>008-011-180200-
...WEST CENTRAL VALLEYS...

CITY           SKY/WX    TMP DP  RH WIND       PRES   REMARKS
GRAND JUNCTION CLOUDY    36  36 100 CALM      29.98R
MONTROSE       CLOUDY    36  32  85 N7        29.99R
EAGLE          MOCLDY    27  25  93 CALM      30.00R
RIFLE          CLOUDY    36  31  82 W3        29.97R
DELTA          DRIZZLE   39  36  90 SW8       29.99R
NUCLA          DRIZZLE   36  34  93 NW5       30.02R
$$

COZ017>023-064>068-180200-
...SOUTHWEST COLORADO...

CITY           SKY/WX    TMP DP  RH WIND       PRES   REMARKS
DURANGO        LGT SNOW  32  31  96 SW6       29.99R FOG     WCI  26
CORTEZ         MIX PCPN  35  33  92 E3        30.00R
PAGOSA SPRINGS CLOUDY    32  31  97 CALM      29.99R
TELLURIDE      SNOW      27  27 100 W5        29.97S VSB 1/2 WCI  22
WOLF CREEK PAS NOT AVBL
$$

COZ009-010-012-014-032>034-037-058>063-180200-
...CENTRAL COLORADO...

CITY           SKY/WX    TMP DP  RH WIND       PRES   REMARKS
ASPEN          LGT SNOW  29  28  96 CALM      29.95R FOG
BUENA VISTA    CLOUDY    28  19  69 CALM      29.93S
COPPER MTN     LGT SNOW  21  14  73 MISG      29.95R
BERTHOUD PASS  HAZE      12   9  85 MISG      29.95S VSB<1/4
COTTONWOOD PAS CLOUDY    30  23  74 CALM      29.94R
GUNNISON       MOCLDY    27  18  69 CALM      29.99R
KREMMLING      LGT SNOW  23  19  86 CALM      29.99R
LEADVILLE      CLOUDY    21  17  84 N3        29.93R
MONARCH PASS   LGT SNOW  16  14  93 MISG      30.04R
SALIDA         CLOUDY    34  23  64 SW6       30.00R WCI  29
SUNLIGHT       LGT SNOW  23  23 100 CALM      29.98R
WILKERSON PASS LGT SNOW  19  18  93 CALM      29.97R
$$

COZ069>075-180200-
...SAN LUIS VALLEY/SANGRE DE CRISTO MOUNTAINS...

CITY           SKY/WX    TMP DP  RH WIND       PRES   REMARKS
ALAMOSA        CLOUDY    28  24  85 CALM      29.96R
LA VETA PASS   NOT AVBL
SAGUACHE       MOCLDY    28  25  86 CALM      29.97R
$$

COZ035-036-038>040-180200-
...NORTHERN COLORADO FRONT RANGE...

CITY           SKY/WX    TMP DP  RH WIND       PRES   REMARKS
DENVER INTL AP CLOUDY    31  27  85 SE7       29.93R WCI  24
DMNS CITY PARK   N/A     36  26  66 NE3       29.93S
AURORA         CLOUDY    34  28  79 SW1       29.93S
FRONT RANGE AP NOT AVBL
ERIE MUNI ARPT   N/A     33  25  74 CALM      29.94R
BOULDER MUN AP CLOUDY    36  25  64 CALM      29.93S
CENTENNIAL     CLOUDY    36  26  67 NW3       29.92R
BROOMFIELD     CLOUDY    36  25  64 MISG      29.93S
FORT COLLINS   MOCLDY    30  19  64 E5        29.96R WCI  25
LONGMONT       MOCLDY    32  24  73 CALM      29.96R
$$

COZ041-046-047-076>085-087-088-180200-
...PIKES PEAK/PALMER DIVIDE AND SOUTHERN FOOTHILLS...

CITY           SKY/WX    TMP DP  RH WIND       PRES   REMARKS
COLO. SPRINGS  CLOUDY    34  32  92 NW8       29.93R WCI  27
A. F. ACADEMY  MOCLDY    31  31  99 N7        29.93R WCI  25
ELLICOTT       NOT AVBL
FALCON         CLOUDY    33  26  74 N5        29.94R WCI  28
FORT CARSON    CLOUDY    34  32  94 NW7       29.92R WCI  28
LIMON          CLOUDY    28  24  85 SE8       29.94R WCI  20
MONUMENT HILL  CLOUDY    32  30  93 W3        29.92R
TRINIDAD       CLOUDY    29  23  78 CALM      29.93R
$$

COZ042>045-048>051-090-091-180200-
...NORTHEAST COLORADO...

CITY           SKY/WX    TMP DP  RH WIND       PRES   REMARKS
GREELEY ARPT   CLOUDY    27  18  69 E3        29.96R
AKRON          CLOUDY    23  22  96 SE7       29.96R FOG     WCI  15
BURLINGTON     FOG       26  23  88 E5        30.00R VSB 3/4 WCI  20
WRAY           CLOUDY   N/A N/A N/A E3        30.03S FOG
STERLING       CLOUDY    27  27 100 CALM      29.99S
HOLYOKE        NOT AVBL
FORT MORGAN    CLOUDY    19  16  88 CALM      29.98R
$$

COZ086-089-092>099-180200-
...SOUTHEAST COLORADO...

CITY           SKY/WX    TMP DP  RH WIND       PRES   REMARKS
PUEBLO         PTCLDY    27  20  75 SE6       29.95R WCI  20
LA JUNTA       CLOUDY    28  24  85 E5        29.98R WCI  23
LAMAR          CLOUDY    29  26  89 W5        29.99R WCI  24
SPRINGFIELD      N/A     26  24  92 N8        29.95R WCI  18
$$


USA.gov is the U.S. government's official web portal to all federal, state and local government web resources and services.